Location: Bemmer
(51.5498°N, 5.6249°E)
Time: 13:36:04
(UTC+00:00)

Cosmos 1821 Rocket - Pass Details

Date: 03 March 2021
Orbit: 945 x 1005 km, 82.9° (Epoch: 10 April)

Event Time Altitude Azimuth Distance (km) Brightness Sun altitude
Exits shadow 20:42:01 81° 289° (WNW) 986 3.9 -30.7°
Drops below altitude 10° 20:48:10 10° 9° (N) 2,702 6.6 -31.5°
Sets 20:50:40 0° 10° (N) 3,645 7.3 -31.9°
